Weather History for KRHI - December, 2012

Change the Weather History Date:

Saturday, December 15, 2012

  Actual Average Record
Temperature  
Mean Temperature 33 °F 17 °F  
Max Temperature 35 °F 25 °F 48 °F (1993)
Min Temperature 30 °F 8 °F -28 °F (1919)
Degree Days  
Heating Degree Days 32 48  
Month to date heating degree days 558 686  
Since 1 July heating degree days 2678 2820  
Cooling Degree Days 0 0  
Month to date cooling degree days 0 0  
Year to date cooling degree days 373 261  
Moisture  
Dew Point 32 °F    
Average Humidity 93    
Maximum Humidity 100    
Minimum Humidity 85    
Precipitation  
Precipitation 0.12 in 0.04 in 0.58 in (1940)
Month to date precipitation 0.46 0.75  
Year to date precipitation 29.70 30.71  
Snow  
Snow 0.10 in - 6.00 in (1940)
Month to date snowfall 5.0  
Since 1 July snowfall 10.5  
Snow Depth 1.00 in    
Sea Level Pressure  
Sea Level Pressure 29.71 in    
Wind  
Wind Speed 11 mph (ESE)    
Max Wind Speed 21 mph    
Max Gust Speed 26 mph    
Visibility 4 miles    
Events Fog , Rain , Snow    
T = Trace of Precipitation, MM = Missing Value Source: NWS Daily Summary

Daily Weather History Graph

Daily Weather History Graph

Search for Another Location

Airport or City:

Trip Planner

Search our weather history database for the weather conditions in past years. The results will help you decide how hot, cold, wet, or windy it might be!

Date:

Astronomy

Dec. 15, 2012 Rise Set
Actual Time 7:32 AM CST 4:14 PM CST
Civil Twilight 6:57 AM CST 4:48 PM CST
Nautical Twilight 6:20 AM CST 5:26 PM CST
Astronomical Twilight 5:43 AM CST 6:02 PM CST
Moon 9:19 AM CST (12/15) 7:25 PM CST (12/15)
Length of Visible Light 9h 51m
Length of Day
8h 42m
Waxing Crescent, 8% of the Moon is Illuminated
Dec 15
Waxing Crescent
Dec 19
First Quarter
Dec 28
Full
Jan 4
Last Quarter
Jan 11
New

Hourly Weather History & Observations

Time (CST) Temp. Windchill Dew Point Humidity Pressure Visibility Wind Dir Wind Speed Gust Speed Precip Events Conditions
12:53 AM 30.0 °F 20.0 °F 28.0 °F 92% 30.03 in 7.0 mi ESE 12.7 mph - N/A   Overcast
1:35 AM 30.2 °F 19.3 °F 28.4 °F 93% 29.95 in 5.0 mi ESE 15.0 mph - N/A   Overcast
1:53 AM 30.9 °F 20.7 °F 28.9 °F 92% 30.01 in 5.0 mi ESE 13.8 mph - N/A   Overcast
2:53 AM 32.0 °F 22.1 °F 30.0 °F 92% 29.98 in 5.0 mi ESE 13.8 mph - N/A   Overcast
3:53 AM 32.0 °F 22.1 °F 30.9 °F 96% 29.95 in 3.0 mi ESE 13.8 mph - N/A   Overcast
4:53 AM 33.1 °F 24.4 °F 32.0 °F 96% 29.94 in 3.0 mi ESE 11.5 mph - N/A   Overcast
5:25 AM 33.8 °F 23.9 °F 32.0 °F 93% 29.86 in 2.5 mi ESE 15.0 mph - N/A   Overcast
5:35 AM 33.8 °F 24.8 °F 32.0 °F 93% 29.86 in 3.0 mi East 12.7 mph - N/A   Overcast
5:53 AM 33.1 °F 23.9 °F 32.0 °F 96% 29.91 in 3.0 mi ESE 12.7 mph - N/A   Overcast
6:53 AM 34.0 °F 24.2 °F 32.0 °F 92% 29.88 in 3.0 mi East 15.0 mph 25.3 mph N/A   Overcast
7:17 AM 33.8 °F 23.9 °F 32.0 °F 93% 29.81 in 3.0 mi ESE 15.0 mph - N/A   Overcast
7:53 AM 34.0 °F 24.6 °F 32.0 °F 92% 29.85 in 4.0 mi ESE 13.8 mph 23.0 mph N/A   Overcast
8:53 AM 35.1 °F 25.5 °F 32.0 °F 89% 29.82 in 3.0 mi ESE 15.0 mph 21.9 mph N/A   Overcast
9:53 AM 34.0 °F 25.0 °F 32.0 °F 92% 29.80 in 3.0 mi ESE 12.7 mph - 0.00 in Rain Light Rain
10:33 AM 35.6 °F 26.2 °F 33.8 °F 93% 29.74 in 3.0 mi ESE 15.0 mph - 0.00 in Rain Light Rain
10:42 AM 35.6 °F 26.6 °F 33.8 °F 93% 29.74 in 2.5 mi SE 13.8 mph 23.0 mph 0.01 in Rain Light Rain
10:53 AM 35.1 °F 26.4 °F 33.1 °F 92% 29.79 in 2.0 mi ESE 12.7 mph 21.9 mph 0.01 in Rain Light Rain
11:37 AM 35.6 °F 26.2 °F 33.8 °F 93% 29.70 in 3.0 mi ESE 15.0 mph - 0.02 in Rain Light Rain
11:53 AM 35.1 °F 25.5 °F 33.1 °F 92% 29.74 in 4.0 mi ESE 15.0 mph - 0.02 in Rain Light Rain
12:53 PM 34.0 °F 23.4 °F 32.0 °F 92% 29.70 in 5.0 mi ESE 17.3 mph - 0.01 in   Overcast
1:21 PM 33.8 °F 23.2 °F 32.0 °F 93% 29.62 in 2.0 mi ESE 17.3 mph 23.0 mph 0.01 in Snow Light Snow
1:29 PM 33.8 °F 23.5 °F 32.0 °F 93% 29.62 in 1.8 mi ESE 16.1 mph 25.3 mph 0.01 in Snow Light Snow
1:53 PM 33.1 °F 23.4 °F 32.0 °F 96% 29.65 in 1.2 mi ESE 13.8 mph 23.0 mph 0.02 in Snow Light Snow
2:07 PM 33.8 °F 23.9 °F 32.0 °F 93% 29.59 in 3.0 mi ESE 15.0 mph 23.0 mph 0.01 in Snow Light Snow
2:53 PM 34.0 °F 25.0 °F 32.0 °F 92% 29.63 in 5.0 mi ESE 12.7 mph - 0.01 in Snow Light Snow
3:42 PM 33.8 °F 25.8 °F 32.0 °F 93% 29.57 in 2.0 mi East 10.4 mph - 0.01 in Snow Light Snow
3:53 PM 33.1 °F 24.9 °F 32.0 °F 96% 29.62 in 3.0 mi ESE 10.4 mph - 0.01 in Snow Light Snow
4:53 PM 33.1 °F 24.4 °F 32.0 °F 96% 29.61 in 3.0 mi ESE 11.5 mph - 0.01 in Snow Light Snow
5:53 PM 34.0 °F 26.0 °F 32.0 °F 92% 29.60 in 8.0 mi ESE 10.4 mph - 0.01 in Snow Light Snow
6:53 PM 34.0 °F 28.8 °F 32.0 °F 92% 29.60 in 10.0 mi East 5.8 mph - 0.00 in   Overcast
7:53 PM 33.1 °F 28.7 °F 32.0 °F 96% 29.58 in 10.0 mi East 4.6 mph - N/A   Overcast
8:53 PM 33.1 °F 27.7 °F 32.0 °F 96% 29.58 in 10.0 mi ESE 5.8 mph - N/A   Overcast
9:15 PM 33.8 °F 28.6 °F 32.0 °F 93% 29.52 in 9.0 mi East 5.8 mph - N/A   Overcast
9:39 PM 33.8 °F 29.6 °F 32.0 °F 93% 29.52 in 1.8 mi East 4.6 mph - N/A   Overcast
9:53 PM 33.1 °F 30.0 °F 32.0 °F 96% 29.57 in 0.8 mi East 3.5 mph - N/A   Mist
10:30 PM 33.8 °F 29.6 °F 32.0 °F 93% 29.51 in 0.2 mi ENE 4.6 mph - N/A Fog Fog
10:39 PM 33.8 °F 30.8 °F 32.0 °F 93% 29.51 in 0.5 mi ENE 3.5 mph - N/A Fog Fog
10:49 PM 33.8 °F 30.8 °F 33.8 °F 100% 29.51 in 0.2 mi East 3.5 mph - N/A Fog Fog
10:53 PM 33.1 °F 30.0 °F 33.1 °F 100% 29.55 in 0.2 mi East 3.5 mph - N/A Fog Fog
11:53 PM 33.1 °F - 33.1 °F 100% 29.55 in 0.2 mi Calm Calm - N/A Fog Fog